Location: Camp Crooked Creek
(37.9149°N, 85.6607°W)
Time: 08:05:54
(UTC-04:00)

Daily predictions for brighter satellites

Satellite Brightness Start Highest point End
(mag) Time Altitude Azimuth Time Altitude Azimuth Time Altitude Azimuth
H-2A R/B 3.6 20:46:19 10° SE 20:49:45 32° ENE 20:53:15 10° N
Cosmos 2369 4.5 20:46:15 10° SSE 20:51:03 29° ESE 20:55:52 10° NE
CZ-4B DEB 3.0 20:47:57 10° SSE 20:51:08 52° ENE 20:54:21 10° N
Meteor 1-23 Rocket 4.4 20:46:09 10° N 20:51:40 54° ENE 20:57:14 10° SSE
Delta 2 Rocket 4.1 20:46:29 10° W 20:52:10 71° S 20:57:20 10° E
ATLAS CENTAUR R/B 3.6 20:47:43 10° WSW 20:52:25 38° NW 20:57:02 10° NNE
EP 2 4.3 20:50:18 10° SSW 20:52:51 52° ESE 20:55:28 10° NE
Cosmos 1544 Rocket 3.8 20:50:21 10° SSE 20:54:30 46° E 20:58:43 10° NNE
OAO 2 Rocket 4.1 20:54:50 10° SW 20:59:19 33° SSE 21:03:54 10° E
FengYun 1-2 T 4.3 20:57:17 10° SSE 21:02:57 90° WSW 21:08:36 10° NNW
Cosmos 968 Rocket 3.6 20:58:37 10° NNW 21:03:46 77° WSW 21:08:51 10° SSE
CZ-2D R/B 3.4 21:00:53 10° SSE 21:04:38 55° ENE 21:08:26 10° N
NOSS 2-1 (D) 3.7 21:03:56 10° SW 21:07:46 70° NW 21:12:02 10° NNE
NOSS 2-1 (C) 3.7 21:04:57 10° SW 21:08:47 70° NW 21:13:04 10° NNE
Hubble Space Telescope 2.5 21:06:17 10° SW 21:09:25 21° S 21:12:19 11° SE
ERS-1 Rocket 4.0 21:07:32 11° ESE 21:11:28 27° ENE 21:15:40 10° N
Cosmos 1821 Rocket 3.9 21:06:18 10° S 21:12:26 85° E 21:18:33 10° N
Cosmos 1605 Rocket 4.2 21:09:13 10° SSE 21:15:20 51° E 21:21:23 10° NNE
Cosmos 1633 3.9 21:11:57 10° SSW 21:15:27 44° W 21:18:58 10° N
Cosmos 1536 3.9 21:11:46 10° SSW 21:15:37 49° W 21:19:32 10° N
Cosmos 1346 Rocket 3.0 21:14:09 10° N 21:17:59 50° E 21:21:51 10° SSE
Meteor 2-16 Rocket 4.4 21:14:17 10° S 21:20:22 80° E 21:26:27 10° N
NOSS 2-1 (E) 4.3 21:21:01 10° SW 21:24:48 51° NW 21:29:07 10° NNE
Cosmos 2227 Rocket 2.5 21:22:53 10° NNW 21:28:23 49° ENE 21:32:24 18° SE
Meteor 1-5 Rocket 4.2 21:26:41 10° S 21:31:59 81° W 21:37:25 10° N
ALOS 2.7 21:27:31 10° S 21:32:08 63° W 21:36:47 10° NNW
FENGYUN 3A 3.9 21:27:29 10° S 21:32:49 71° WSW 21:38:10 10° NNW
Cosmos 1500 4.2 21:34:20 24° ESE 21:34:45 25° E 21:37:53 10° NE
BREEZE-M DEB (TANK) 4.4 21:16:16 10° SW 21:37:28 70° SSE 21:42:45 10° ENE
Cosmos 1656 4.0 21:34:13 10° S 21:39:30 42° ESE 21:44:43 10° NE
Cosmos 1777 Rocket 4.5 21:35:47 10° NNW 21:40:57 61° WSW 21:46:08 10° S
Cosmos 2082 3.8 21:35:29 10° NNW 21:41:03 59° ENE 21:44:33 23° SE
Cosmos 2297 Rocket 2.5 21:38:47 10° N 21:44:15 48° ENE 21:47:09 26° ESE
Cosmos 2123 Rocket 4.0 21:39:30 10° N 21:45:42 84° W 21:51:52 10° S
Lacrosse 5 3.7 21:45:22 10° NNW 21:49:06 20° NNE 21:51:36 15° ENE
H-2A R/B 2.8 21:49:23 29° E 21:50:01 30° ENE 21:53:38 10° N
SPOT 5 3.8 21:52:32 28° E 21:53:54 33° ENE 21:58:16 10° N
deb Chang Zheng 4 4.0 21:51:49 10° NNE 21:56:04 42° E 21:57:05 36° SE
Cosmos 1626 Rocket 3.4 21:51:49 10° N 21:56:14 74° E 21:58:22 29° SSE
Cosmos 1455 Rocket 4.3 21:54:31 10° SSW 21:58:36 41° W 22:02:44 10° N
Cosmos 1515 3.8 21:54:51 10° N 21:58:37 52° E 21:59:09 48° ESE
Cosmos 2298 Rocket 4.5 21:54:17 10° N 21:59:20 43° ENE 22:00:56 34° ESE
Cosmos 1975 2.8 21:55:25 10° S 21:59:30 87° W 22:03:38 10° N
Cosmos 1459 Rocket 4.2 21:59:00 26° SSE 22:01:59 46° E 22:07:45 10° NNE
Cosmos 1602 Rocket 3.5 21:59:42 10° N 22:04:11 89° W 22:06:23 30° S
Cosmos 1743 4.1 22:06:26 25° NE 22:06:26 25° NE 22:08:37 10° NNE
NOSS 3-4 (A) 4.0 21:58:47 10° NW 22:05:51 72° WSW 22:10:47 23° SSE
NOSS 3-4 (C) 4.0 21:58:54 10° NW 22:05:59 73° WSW 22:10:52 23° SSE
Nimbus 7 Rocket 4.5 22:01:57 10° NNE 22:07:56 58° ESE 22:12:29 18° S
H-2A R/B 4.0 22:10:13 12° ENE 22:10:13 12° ENE 22:11:47 10° NE
Cosmos 1153 Rocket 4.5 22:04:34 10° S 22:10:48 84° W 22:16:59 10° N
YAOGAN 6 4.0 22:12:12 26° NE 22:12:12 26° NE 22:14:30 10° N
Cosmos 1461 2.8 22:09:00 10° NW 22:13:02 73° WSW 22:13:43 57° S
Envisat 2.9 22:11:14 36° SSE 22:13:22 82° ENE 22:18:29 10° N
Lacrosse 5 rocket 1.4 22:09:50 10° NNW 22:13:22 51° NE 22:13:22 51° NE
Cosmos 1066 Rocket 4.2 22:08:28 10° N 22:14:05 65° E 22:16:05 40° SE
CZ-4 DEB 3.9 22:14:53 34° SW 22:15:33 40° W 22:18:33 10° NNW
Tiangong 1 2.5 22:13:52 10° WNW 22:16:40 31° N 22:16:48 31° N
MetOp-A 4.4 22:15:53 43° ESE 22:16:58 50° ENE 22:22:08 10° N
Cosmos 1937 Rocket 3.9 22:15:31 10° N 22:20:32 43° ENE 22:21:02 42° E
Cosmos 1697 Rocket 2.5 22:16:24 10° SSW 22:22:01 73° ESE 22:27:40 10° NNE
Cosmos 1802 Rocket 4.0 22:20:59 37° SSE 22:23:30 61° E 22:29:49 10° NNE
OTV 4 2.3 22:22:18 10° W 22:23:53 28° W 22:23:53 28° W
Cosmos 2150 Rocket 3.9 22:21:29 10° NNW 22:26:38 67° ENE 22:27:17 60° ESE
SPOT 1/Viking Rocket 4.1 22:28:06 40° ENE 22:28:08 40° ENE 22:32:59 10° N
DELTA 2 R/B (1) 3.5 22:22:59 10° WNW 22:28:35 86° NNE 22:29:48 56° E
Cosmos 1939 Rocket 3.5 22:28:30 41° SSW 22:29:32 52° W 22:33:37 10° NNW
ASTEX 1 3.4 22:28:17 10° NNE 22:33:04 61° E 22:33:04 61° E
Cosmos 2084 4.0 22:29:57 10° NNW 22:33:22 46° NNE 22:33:22 46° NNE
Delta 2 Rocket 4.3 22:29:38 10° W 22:34:44 46° SSW 22:34:44 46° SSW
Cosmos 220 Rocket 4.3 22:31:08 10° NNW 22:35:17 57° WSW 22:35:36 55° SW
Iridium 4 Rocket 4.5 22:31:30 10° NNW 22:36:20 42° W 22:39:24 19° SSW
Cosmos 1606 Rocket 4.4 22:38:14 40° NNE 22:38:14 40° NNE 22:41:12 10° NNE
Cosmos 990 Rocket 4.5 22:33:00 10° N 22:37:48 45° ENE 22:37:48 45° ENE
Terra 3.8 22:40:15 16° NE 22:40:15 16° NE 22:42:03 10° NNE
Cosmos 1980 Rocket 2.2 22:44:07 63° E 22:44:07 63° E 22:49:19 10° NNE
OAO 2 Rocket 3.6 22:38:45 10° WSW 22:42:57 53° SW 22:42:57 53° SW
Cosmos 2016 Rocket 3.8 22:43:28 60° SSE 22:44:34 75° E 22:50:43 10° N
ARGOS 3.3 22:49:32 58° NE 22:49:32 58° NE 22:54:30 10° N
ERS-1 Rocket 4.5 22:47:32 20° SW 22:50:06 32° W 22:54:35 10° NW
Cosmos 1898 Rocket 3.7 22:49:14 10° NNW 22:54:28 64° WSW 22:54:53 61° SW
Meteor 1-21 4.1 22:50:55 10° N 22:56:43 85° E 22:56:52 83° SE
Cosmos 2173 Rocket 4.4 22:53:55 26° SSW 22:57:38 63° W 23:03:56 10° N
RESURS DK-1 3.7 22:56:43 10° NNW 22:59:18 37° NNW 22:59:18 37° NNW
Cosmos 1763 Rocket 4.2 23:04:53 44° NNE 23:04:53 44° NNE 23:08:19 10° NNE
SL-19 R/B 4.2 23:03:12 10° N 23:08:41 73° WNW 23:08:46 72° W
Cosmos 1864 Rocket 4.4 23:12:32 72° NE 23:12:32 72° NE 23:18:04 10° N
Cosmos 2227 Rocket 4.2 23:07:55 10° NW 23:12:00 21° W 23:14:14 16° SW
Tsikada Rocket 4.0 23:06:35 10° N 23:12:34 69° NE 23:12:34 69° NE
Cosmos 2322 Rocket 4.2 23:18:33 16° NE 23:18:33 16° NE 23:19:46 10° NE
Cosmos 2263 Rocket 4.0 23:11:45 10° N 23:14:41 19° NE 23:14:41 19° NE
Cosmos 841 Rocket 4.4 23:24:39 43° N 23:24:39 43° N 23:28:13 10° NNE
Milstar 3 Cent rocket 4.0 23:09:52 10° W 23:25:43 48° SSW 23:26:27 47° S
H-2A R/B 4.3 23:26:31 18° W 23:26:31 18° W 23:28:58 10° NW
Cosmos 2297 Rocket 4.0 23:23:43 10° NW 23:27:53 21° W 23:28:59 20° WSW
USA 215 3.3 23:29:23 68° NE 23:29:23 68° NE 23:35:50 10° NW
Lacrosse 5 3.0 23:27:34 10° NW 23:30:48 40° NW 23:30:48 40° NW
Cosmos 1725 Rocket 4.4 23:42:15 57° WNW 23:42:15 57° WNW 23:48:10 10° N
H-2A R/B 3.5 23:50:51 33° NNW 23:50:51 33° NNW 23:53:34 10° NNW
